Location: Gebenbach
(49.5378°N, 11.8735°E)
Time: 12:12:42
(UTC+00:00)

Cosmos 1400 Rocket - Pass Details

Date: 29 October 2020
Orbit: 521 x 568 km, 81.2° (Epoch: 24 November)

Event Time Altitude Azimuth Distance (km) Brightness Sun altitude
Rises 17:06:45 0° 188° (S) 2,751 6.6 -12.1°
Reaches altitude 10° 17:08:56 10° 188° (S) 1,855 5.7 -12.5°
Maximum altitude 17:13:02 83° 101° (E) 572 2.8 -13.1°
Drops below altitude 10° 17:17:07 10° 13° (NNE) 1,849 5.3 -13.8°
Sets 17:19:17 0° 13° (NNE) 2,741 6.2 -14.2°
